Home   Weather   Middletown, Orange Co.   Past weeks
Flag for USA

Past Weather in Middletown, Orange Co., New York, USA — Yesterday and Last 2 Weeks

Now
42 °F

Clear.


Feels Like: 42 °F
Forecast: 60 / 39 °F
Wind: No wind

Location: Orange County Airport

Current Time: Oct 15, 2019 at 2:25:18 am

Latest Report: Oct 15, 2019 at 1:54 am


Visibility: 10 mi

Pressure: 30.09 "Hg

Humidity: 89%

Dew Point: 39 °F

Location of Middletown, Orange Co.Location

Past Weather in Middletown, Orange Co. — Graph

°F

Middletown, Orange Co. Temperature Yesterday

Maximum temperature yesterday: 72 °F (at 3:54 pm)
Minimum temperature yesterday: 41 °F (at 4:05 am)
Average temperature yesterday: 54 °F

High & Low Weather Summary for the Past Weeks

 TemperatureHumidityPressure
High85 °F (Oct 2, 1:54 pm)100% (Oct 3, 8:54 pm)30.48 "Hg (Oct 3, 8:54 pm)
Low31 °F (Oct 5, 6:09 am)30% (Oct 14, 3:54 pm)29.75 "Hg (Oct 2, 1:54 pm)
Average56 °F77%30.12 "Hg
* Reported Sep 30 5:54 pm — Oct 15 12:54 am, Middletown, Orange Co.. Weather by CustomWeather, © 2019

Note: Actual official high and low records may vary slightly from our data, if they occured in-between our weather recording intervals... More about our weather records

Advertising

Middletown, Orange Co. Weather History for the Previous 24 Hours

Scroll right to see more
 ConditionsComfort  
Time TempWeatherWind HumidityBarometerVisibility
12:54 am
Tue, Oct 15
45 °FClear.3 mph82%30.07 "Hg10 mi
11:54 pm
Mon, Oct 14
50 °FClear.5 mph68%30.06 "Hg10 mi
10:54 pm53 °FClear.3 mph59%30.05 "Hg10 mi
9:54 pm48 °FClear.3 mph80%30.02 "Hg10 mi
8:54 pm53 °FClear.No wind64%29.99 "Hg10 mi
7:54 pm60 °FClear.5 mph47%29.97 "Hg10 mi
6:54 pm61 °FClear.7 mph46%29.93 "Hg10 mi
5:54 pm65 °FSunny.8 mph39%29.90 "Hg10 mi
4:54 pm69 °FSunny.13 mph31%29.88 "Hg10 mi
3:54 pm72 °FSunny.9 mph30%29.87 "Hg10 mi
2:54 pm71 °FSunny.13 mph39%29.88 "Hg10 mi
1:54 pm69 °FPassing clouds.10 mph44%29.90 "Hg10 mi
12:54 pm67 °FSunny.14 mph45%29.92 "Hg10 mi
11:54 am64 °FPassing clouds.9 mph61%29.95 "Hg10 mi
10:54 am61 °FSunny.8 mph70%29.98 "Hg10 mi
9:54 am58 °FSunny.9 mph78%29.99 "Hg10 mi
8:54 am51 °FSunny.5 mph92%29.99 "Hg10 mi
7:54 am46 °FSunny.No wind96%29.98 "Hg10 mi
7:32 am46 °FScattered clouds.3 mph96%29.98 "Hg10 mi
6:54 am47 °FOvercast.No wind97%29.98 "Hg10 mi
5:54 am46 °FOvercast.No wind100%29.96 "Hg10 mi
4:54 am45 °FOvercast.No wind97%29.96 "Hg10 mi
4:05 am41 °FFog.No wind96%29.95 "Hg5 mi
3:38 am42 °FPassing clouds.No wind96%29.95 "Hg7 mi
2:54 am42 °FClear.No wind96%29.97 "Hg10 mi
2:15 am43 °FFog.No wind97%29.98 "Hg5 mi
Weather by CustomWeather, © 2019

See weather overview